| time (UTC) | temp F | wind direction | speed knots | gust knots | rain 1hr in | rain 24hr in | rain mn in | humidity % | barometer mb |
| 20260510184528 | 67 | 279 | 7.8 | 16.5 | 0.00 | 0.00 | 0.00 | 54 | 1018.8 |
| 20260510183031 | 69 | 284 | 7.8 | 15.6 | 0.00 | 0.00 | 0.00 | 53 | 1018.6 |
| 20260510180029 | 69 | 276 | 5.2 | 12.2 | 0.00 | 0.00 | 0.00 | 54 | 1018.5 |
| 20260510174530 | 68 | 259 | 1.7 | 12.2 | 0.00 | 0.00 | 0.00 | 58 | 1018.6 |
| 20260510171645 | 67 | 46 | 2.6 | 5.2 | 0.00 | 0.00 | 0.00 | 60 | 1018.5 |
| 20260510170030 | 66 | 32 | 0.0 | 2.6 | 0.00 | 0.00 | 0.00 | 62 | 1018.6 |
| 20260510164531 | 64 | 337 | 0.0 | 1.7 | 0.00 | 0.00 | 0.00 | 66 | 1018.6 |
| 20260510161608 | 60 | 67 | 0.9 | 2.6 | 0.00 | 0.00 | 0.00 | 73 | 1018.5 |
| 20260510160031 | 60 | 15 | 0.9 | 2.6 | 0.00 | 0.00 | 0.00 | 75 | 1018.6 |
| 20260510153030 | 58 | 298 | 0.9 | 2.6 | 0.00 | 0.00 | 0.00 | 79 | 1018.3 |
| 20260510151530 | 56 | 112 | 0.0 | 3.5 | 0.00 | 0.00 | 0.00 | 83 | 1018.2 |
| 20260510150028 | 54 | 81 | 0.0 | 3.5 | 0.00 | 0.00 | 0.00 | 86 | 1018.3 |
| 20260510144531 | 51 | 90 | 0.0 | 0.0 | 0.00 | 0.00 | 0.00 | 88 | 1018.1 |
| 20260510143032 | 50 | 270 | 0.0 | 0.0 | 0.00 | 0.00 | 0.00 | 90 | 1017.9 |
| 20260510141531 | 49 | 270 | 0.0 | 0.0 | 0.00 | 0.00 | 0.00 | 91 | 1017.9 |
| 20260510140148 | 46 | 122 | 0.0 | 2.6 | 0.00 | 0.00 | 0.00 | 92 | 1017.7 |
| 20260510134532 | 45 | 126 | 0.9 | 3.5 | 0.00 | 0.00 | 0.00 | 93 | 1017.9 |
| 20260510131530 | 41 | 138 | 1.7 | 3.5 | 0.00 | 0.00 | 0.00 | 93 | 1017.7 |
| 20260510130029 | 41 | 248 | 0.9 | 3.5 | 0.00 | 0.00 | 0.00 | 93 | 1017.8 |
| 20260510123032 | 41 | 145 | 1.7 | 4.3 | 0.00 | 0.00 | 0.00 | 94 | 1018.0 |
| 20260510114608 | 40 | 139 | 0.9 | 3.5 | 0.00 | 0.00 | 0.00 | 93 | 1017.9 |
| 20260510113103 | 40 | 112 | 0.0 | 1.7 | 0.00 | 0.00 | 0.00 | 93 | 1017.8 |
| 20260510110146 | 40 | 182 | 0.9 | 2.6 | 0.00 | 0.00 | 0.00 | 93 | 1017.6 |
| 20260510101529 | 40 | 172 | 0.0 | 2.6 | 0.00 | 0.00 | 0.00 | 92 | 1017.9 |
| 20260510094531 | 41 | 201 | 0.0 | 2.6 | 0.00 | 0.00 | 0.00 | 92 | 1017.7 |
| 20260510093030 | 41 | 159 | 0.9 | 2.6 | 0.00 | 0.00 | 0.00 | 91 | 1017.8 |
| 20260510091530 | 41 | 157 | 0.9 | 3.5 | 0.00 | 0.00 | 0.00 | 91 | 1018.0 |
| 20260510090031 | 42 | 157 | 0.9 | 1.7 | 0.00 | 0.00 | 0.00 | 91 | 1018.1 |
| 20260510084533 | 42 | 157 | 0.9 | 2.6 | 0.00 | 0.00 | 0.00 | 90 | 1018.2 |
| 20260510083030 | 43 | 157 | 0.0 | 1.7 | 0.00 | 0.00 | 0.00 | 90 | 1018.3 |
| 20260510081529 | 43 | 157 | 0.0 | 0.9 | 0.00 | 0.00 | 0.00 | 90 | 1018.4 |
| 20260510074532 | 44 | 157 | 0.0 | 2.6 | 0.00 | 0.00 | 0.00 | 89 | 1018.6 |
| 20260510073030 | 44 | 157 | 0.9 | 1.7 | 0.00 | 0.00 | 0.00 | 88 | 1018.6 |
| 20260510071531 | 44 | 196 | 0.0 | 1.7 | 0.00 | 0.00 | 0.00 | 88 | 1018.6 |
| 20260510064529 | 45 | 173 | 0.0 | 1.7 | 0.00 | 0.00 | 0.00 | 87 | 1018.6 |
| 20260510063032 | 46 | 157 | 0.9 | 1.7 | 0.00 | 0.00 | 0.00 | 86 | 1018.4 |
| 20260510061529 | 46 | 153 | 0.0 | 3.5 | 0.00 | 0.00 | 0.00 | 86 | 1018.4 |
| 20260510060031 | 47 | 157 | 0.0 | 0.0 | 0.00 | 0.00 | 0.00 | 85 | 1018.4 |
| 20260510054528 | 47 | 149 | 0.9 | 2.6 | 0.00 | 0.00 | 0.00 | 84 | 1018.3 |
| 20260510053106 | 48 | 132 | 1.7 | 3.5 | 0.00 | 0.00 | 0.00 | 82 | 1018.3 |
| 20260510051529 | 50 | 139 | 1.7 | 3.5 | 0.00 | 0.00 | 0.00 | 81 | 1018.2 |
| 20260510050030 | 51 | 149 | 0.9 | 3.5 | 0.00 | 0.00 | 0.00 | 78 | 1018.1 |
| 20260510043032 | 53 | 150 | 0.9 | 2.6 | 0.00 | 0.00 | 0.00 | 77 | 1018.0 |
| 20260510040030 | 56 | 157 | 2.6 | 4.3 | 0.00 | 0.00 | 0.00 | 72 | 1017.7 |
| 20260510034531 | 59 | 157 | 0.0 | 0.9 | 0.00 | 0.00 | 0.00 | 68 | 1017.6 |
| 20260510033030 | 61 | 157 | 0.0 | 0.9 | 0.00 | 0.00 | 0.00 | 66 | 1017.5 |
| 20260510031531 | 63 | 157 | 0.0 | 1.7 | 0.00 | 0.00 | 0.00 | 64 | 1017.5 |
| 20260510024533 | 67 | 157 | 0.0 | 1.7 | 0.00 | 0.00 | 0.00 | 59 | 1017.6 |
| 20260510023028 | 68 | 185 | 0.9 | 2.6 | 0.00 | 0.00 | 0.00 | 56 | 1017.5 |
| 20260510020031 | 73 | 247 | 0.0 | 0.0 | 0.00 | 0.00 | 0.00 | 45 | 1017.5 |
| 20260510013029 | 74 | 247 | 0.9 | 1.7 | 0.00 | 0.00 | 0.00 | 38 | 1017.8 |
| 20260510011530 | 75 | 265 | 0.9 | 2.6 | 0.00 | 0.00 | 0.00 | 34 | 1017.9 |
| 20260510010030 | 76 | 287 | 2.6 | 6.1 | 0.00 | 0.00 | 0.00 | 32 | 1017.9 |
| 20260510004531 | 77 | 273 | 3.5 | 6.1 | 0.00 | 0.00 | 0.00 | 32 | 1017.9 |
| 20260510003028 | 77 | 293 | 3.5 | 7.0 | 0.00 | 0.00 | 0.00 | 34 | 1018.0 |
| 20260510001530 | 78 | 315 | 2.6 | 7.0 | 0.00 | 0.00 | 0.00 | 36 | 1018.0 |
| 20260510000032 | 78 | 353 | 2.6 | 7.0 | 0.00 | 0.00 | 0.00 | 36 | 1018.0 |
| 20260509234529 | 79 | 11 | 2.6 | 6.1 | 0.00 | 0.00 | 0.00 | 36 | 1018.3 |
| 20260509233108 | 79 | 12 | 2.6 | 6.1 | 0.00 | 0.00 | 0.00 | 36 | 1018.4 |
| 20260509231531 | 78 | 359 | 2.6 | 7.0 | 0.00 | 0.00 | 0.00 | 37 | 1018.7 |
| 20260509230030 | 78 | 5 | 2.6 | 6.1 | 0.00 | 0.00 | 0.00 | 38 | 1018.9 |
| 20260509224532 | 77 | 2 | 1.7 | 6.1 | 0.00 | 0.00 | 0.00 | 38 | 1019.2 |
| 20260509223032 | 76 | 23 | 3.5 | 7.0 | 0.00 | 0.00 | 0.00 | 40 | 1019.5 |
| 20260509221532 | 76 | 13 | 3.5 | 7.0 | 0.00 | 0.00 | 0.00 | 41 | 1019.7 |
| 20260509220032 | 75 | 17 | 2.6 | 8.7 | 0.00 | 0.00 | 0.00 | 43 | 1019.8 |
| 20260509214605 | 74 | 17 | 2.6 | 7.8 | 0.00 | 0.00 | 0.00 | 45 | 1020.0 |
| 20260509213029 | 72 | 354 | 3.5 | 8.7 | 0.00 | 0.00 | 0.00 | 47 | 1020.2 |
| 20260509211531 | 72 | 336 | 1.7 | 5.2 | 0.00 | 0.00 | 0.00 | 48 | 1020.3 |
| 20260509210111 | 0 | 0 | 0.0 | 0.0 | 0.00 | 0.00 | 0.00 | 100 | |
| 20260509204549 | 0 | 0 | 0.0 | 0.0 | 0.00 | 0.00 | 0.00 | 100 | |
| 20260509203031 | 71 | 11 | 2.6 | 7.0 | 0.00 | 0.00 | 0.00 | 48 | 1020.7 |
| 20260509201530 | 71 | 15 | 3.5 | 7.0 | 0.00 | 0.00 | 0.00 | 48 | 1021.0 |
| 20260509200106 | 71 | 23 | 2.6 | 8.7 | 0.00 | 0.00 | 0.00 | 49 | 1021.2 |
| 20260509194529 | 71 | 16 | 2.6 | 7.0 | 0.00 | 0.00 | 0.00 | 48 | 1021.5 |
| 20260509193031 | 71 | 11 | 2.6 | 6.1 | 0.00 | 0.00 | 0.00 | 47 | 1021.6 |
| 20260509191529 | 70 | 4 | 2.6 | 6.1 | 0.00 | 0.00 | 0.00 | 47 | 1021.8 |
| 20260509190030 | 70 | 35 | 1.7 | 7.0 | 0.00 | 0.00 | 0.00 | 47 | 1021.9 |